Orbital Elements at Epoch 2459000.5 (2020-May-31.0) TDB
Reference: JPL 13 (heliocentric ecliptic J2000)
Element | Value | Uncertainty (1-sigma) | Units |
e | .1543791340544098 | 6.6748e-08 | |
a | 2.744233969633499 | 4.0898e-08 | au |
q | 2.320581505758784 | 1.8991e-07 | au |
i | 11.9701620530614 | 9.8046e-06 | deg |
node | 224.5783854069499 | 3.7568e-05 | deg |
peri | 90.92067663921553 | 5.8247e-05 | deg |
M | 222.5923354219188 | 3.5566e-05 | deg |
tp | 2459634.280084869767 (2022-Feb-23.78008487) | 0.00016351 | TDB |
period | 1660.466548599732 4.55 | 3.712e-05 1.016e-07 | d yr |
n | .2168065356713071 | 4.8467e-09 | deg/d |
Q | 3.167886433508214 | 4.7212e-08 | au |
|
| | Orbit Determination Parameters
Additional Information
|